TimeEDT,TemperatureF,Dew PointF,Humidity,Sea Level PressureIn,VisibilityMPH,Wind Direction,Wind SpeedMPH,Gust SpeedMPH,PrecipitationIn,Events,Conditions,WindDirDegrees,DateUTC
12:13 AM,43.3,29.1,57,29.94,10.0,SSW,11.5,25.3,N/A,,Overcast,210,2013-10-26 04:13:00
12:34 AM,43.7,29.5,57,29.92,10.0,SSW,12.7,17.3,N/A,,Overcast,200,2013-10-26 04:34:00
12:54 AM,43.7,29.8,58,29.91,10.0,SSW,16.1,23.0,N/A,,Overcast,210,2013-10-26 04:54:00
1:14 AM,44.2,30.2,58,29.90,10.0,SSW,15.0,21.9,N/A,,Overcast,210,2013-10-26 05:14:00
1:34 AM,44.6,30.6,58,29.88,10.0,SSW,18.4,28.8,N/A,,Overcast,210,2013-10-26 05:34:00
1:54 AM,44.6,31.1,59,29.87,10.0,SSW,11.5,20.7,N/A,,Overcast,210,2013-10-26 05:54:00
2:14 AM,44.8,31.3,59,29.86,10.0,SSW,18.4,23.0,N/A,,Overcast,210,2013-10-26 06:14:00
2:34 AM,45.5,31.8,59,29.84,10.0,SSW,13.8,27.6,N/A,,Overcast,210,2013-10-26 06:34:00
2:54 AM,45.1,32.2,60,29.82,10.0,SW,20.7,28.8,N/A,,Light Drizzle,220,2013-10-26 06:54:00
3:14 AM,44.8,33.3,64,29.82,10.0,SW,13.8,26.5,N/A,,Light Drizzle,220,2013-10-26 07:14:00
3:34 AM,44.6,34.3,67,29.81,10.0,SW,19.6,25.3,N/A,,Drizzle,220,2013-10-26 07:34:00
3:53 AM,44.2,35.2,71,29.80,10.0,SW,16.1,24.2,N/A,,Drizzle,220,2013-10-26 07:53:00
4:14 AM,43.7,36.1,75,29.79,10.0,SW,12.7,24.2,N/A,Rain,Light Rain,220,2013-10-26 08:14:00
4:34 AM,42.8,37.0,80,29.78,10.0,SSW,12.7,-,N/A,Rain,Light Rain,210,2013-10-26 08:34:00
4:53 AM,42.3,37.0,82,29.78,7.0,SSW,12.7,19.6,0.01,Rain,Light Rain,210,2013-10-26 08:53:00
5:14 AM,41.9,37.2,83,29.76,7.0,SW,12.7,19.6,0.02,Rain,Light Rain,220,2013-10-26 09:14:00
5:34 AM,41.9,37.6,85,29.76,10.0,SW,10.4,-,0.03,Rain,Light Rain,220,2013-10-26 09:34:00
5:54 AM,41.9,38.5,88,29.76,7.0,SSW,8.1,-,0.04,Rain,Rain,210,2013-10-26 09:54:00
6:14 AM,42.1,39.4,90,29.75,7.0,SW,11.5,17.3,0.01,Rain,Light Rain,220,2013-10-26 10:14:00
6:34 AM,43.0,39.4,87,29.74,10.0,WSW,13.8,19.6,0.02,Rain,Light Rain,240,2013-10-26 10:34:00
6:43 AM,43.3,39.6,87,29.75,10.0,WSW,10.4,19.6,0.03,Rain,Light Rain,240,2013-10-26 10:43:00
7:12 AM,43.3,39.6,87,29.73,10.0,SW,15.0,23.0,0.02,Rain,Light Rain,220,2013-10-26 11:12:00
7:19 AM,43.2,39.7,88,29.73,10.0,SW,15.0,19.6,0.02,Rain,Light Rain,220,2013-10-26 11:19:00
7:39 AM,43.7,39.6,85,29.72,10.0,SW,11.5,20.7,0.02,,Light Drizzle,230,2013-10-26 11:39:00
8:04 AM,43.3,39.4,86,29.71,10.0,SW,10.4,21.9,N/A,,Overcast,220,2013-10-26 12:04:00
8:37 AM,41.0,39.2,93,29.71,10.0,SSW,11.5,-,N/A,,Mostly Cloudy,210,2013-10-26 12:37:00
9:00 AM,41.9,38.7,88,29.71,10.0,SSW,9.2,16.1,N/A,,Mostly Cloudy,210,2013-10-26 13:00:00
9:29 AM,43.2,39.4,86,29.71,10.0,SW,9.2,-,N/A,,Mostly Cloudy,220,2013-10-26 13:29:00
9:58 AM,44.6,39.2,81,29.70,10.0,SW,15.0,21.9,N/A,,Mostly Cloudy,220,2013-10-26 13:58:00
10:13 AM,45.5,39.2,79,29.70,10.0,SW,12.7,19.6,N/A,,Overcast,230,2013-10-26 14:13:00
10:16 AM,44.6,39.2,81,29.70,10.0,SW,12.7,18.4,N/A,,Overcast,230,2013-10-26 14:16:00
10:34 AM,45.5,38.8,78,29.70,10.0,SW,12.7,20.7,N/A,,Overcast,230,2013-10-26 14:34:00
10:53 AM,45.5,38.8,78,29.70,10.0,WSW,13.8,20.7,N/A,,Overcast,240,2013-10-26 14:53:00
11:14 AM,45.5,39.2,79,29.70,10.0,SW,12.7,18.4,N/A,,Overcast,230,2013-10-26 15:14:00
11:34 AM,46.4,39.4,77,29.70,10.0,SW,11.5,16.1,N/A,,Overcast,230,2013-10-26 15:34:00
11:53 AM,46.6,39.6,77,29.69,10.0,SSW,13.8,23.0,N/A,,Overcast,210,2013-10-26 15:53:00
12:14 PM,46.9,39.6,76,29.69,10.0,SW,10.4,-,N/A,,Overcast,230,2013-10-26 16:14:00
12:33 PM,47.8,39.4,72,29.69,10.0,WSW,10.4,17.3,N/A,,Overcast,250,2013-10-26 16:33:00
12:54 PM,49.6,40.1,70,29.70,10.0,SW,10.4,-,N/A,,Overcast,230,2013-10-26 16:54:00
1:14 PM,49.3,40.3,71,29.70,10.0,West,9.2,-,N/A,,Overcast,270,2013-10-26 17:14:00
1:34 PM,43.3,40.1,88,29.72,7.0,NW,5.8,10.4,0.01,Rain,Light Rain,310,2013-10-26 17:34:00
1:54 PM,43.7,40.8,90,29.72,10.0,NW,5.8,-,0.01,,Light Drizzle,310,2013-10-26 17:54:00
2:13 PM,44.1,41.2,90,29.72,10.0,WNW,8.1,-,N/A,,Overcast,300,2013-10-26 18:13:00
2:34 PM,45.3,41.5,87,29.72,10.0,WNW,5.8,-,N/A,,Mostly Cloudy,300,2013-10-26 18:34:00
2:54 PM,47.3,42.1,82,29.72,10.0,WNW,9.2,-,N/A,,Mostly Cloudy,290,2013-10-26 18:54:00
3:13 PM,48.0,38.7,70,29.73,10.0,WNW,10.4,-,N/A,,Mostly Cloudy,300,2013-10-26 19:13:00
3:34 PM,48.2,37.8,67,29.75,10.0,WNW,9.2,-,N/A,,Mostly Cloudy,290,2013-10-26 19:34:00
3:54 PM,48.0,36.1,63,29.76,10.0,NW,13.8,20.7,N/A,,Overcast,310,2013-10-26 19:54:00
4:13 PM,48.0,34.7,60,29.77,10.0,WNW,19.6,24.2,N/A,,Mostly Cloudy,300,2013-10-26 20:13:00
4:34 PM,47.3,33.8,59,29.78,10.0,WNW,13.8,21.9,N/A,,Scattered Clouds,290,2013-10-26 20:34:00
4:54 PM,49.5,34.9,57,29.78,10.0,WNW,16.1,25.3,N/A,,Mostly Cloudy,290,2013-10-26 20:54:00
5:14 PM,47.3,32.0,55,29.80,10.0,West,16.1,26.5,N/A,,Scattered Clouds,280,2013-10-26 21:14:00
5:34 PM,46.8,32.2,57,29.81,10.0,WNW,10.4,20.7,N/A,,Clear,290,2013-10-26 21:34:00
5:54 PM,47.3,32.9,57,29.82,10.0,West,13.8,18.4,N/A,,Scattered Clouds,280,2013-10-26 21:54:00
6:14 PM,46.6,32.9,59,29.83,10.0,West,12.7,18.4,N/A,,Overcast,280,2013-10-26 22:14:00
6:34 PM,45.5,32.7,61,29.85,10.0,West,10.4,18.4,N/A,,Mostly Cloudy,280,2013-10-26 22:34:00
6:54 PM,44.8,32.0,61,29.86,10.0,WNW,12.7,23.0,N/A,,Overcast,300,2013-10-26 22:54:00
7:14 PM,44.1,32.4,63,29.87,10.0,WNW,9.2,16.1,N/A,,Overcast,290,2013-10-26 23:14:00
7:33 PM,42.8,32.7,68,29.88,10.0,West,11.5,18.4,N/A,,Scattered Clouds,280,2013-10-26 23:33:00
7:54 PM,41.5,33.3,72,29.89,10.0,West,8.1,-,N/A,,Clear,280,2013-10-26 23:54:00
8:14 PM,40.6,33.4,75,29.90,10.0,West,5.8,-,N/A,,Clear,280,2013-10-27 00:14:00
8:33 PM,40.3,33.6,77,29.91,10.0,West,6.9,-,N/A,,Clear,280,2013-10-27 00:33:00
8:54 PM,39.6,33.6,79,29.92,10.0,West,6.9,-,N/A,,Clear,280,2013-10-27 00:54:00
9:14 PM,39.0,33.6,81,29.93,10.0,West,5.8,-,N/A,,Clear,270,2013-10-27 01:14:00
9:33 PM,38.5,33.6,83,29.93,10.0,West,5.8,-,N/A,,Clear,280,2013-10-27 01:33:00
9:54 PM,38.5,33.4,82,29.94,10.0,West,6.9,-,N/A,,Clear,280,2013-10-27 01:54:00
10:14 PM,38.5,33.3,81,29.95,10.0,WNW,4.6,-,N/A,,Scattered Clouds,290,2013-10-27 02:14:00
10:33 PM,37.6,32.7,83,29.95,10.0,West,3.5,-,N/A,,Clear,280,2013-10-27 02:33:00
10:54 PM,36.9,32.4,84,29.96,10.0,West,3.5,-,N/A,,Clear,260,2013-10-27 02:54:00
11:14 PM,36.1,32.0,85,29.96,10.0,West,4.6,-,N/A,,Clear,260,2013-10-27 03:14:00
11:33 PM,35.6,32.0,87,29.96,10.0,West,3.5,-,N/A,,Clear,280,2013-10-27 03:33:00
11:54 PM,34.5,31.6,89,29.97,10.0,West,3.5,-,N/A,,Clear,260,2013-10-27 03:54:00